EW3861 Weather Reports


time (UTC)temp
F
wind
direction
speed
knots
gust
knots
rain 1hr
in
rain 24hr
in
rain mn
in
humidity
%
barometer
mb
20260903163029 71 225 0.0 0.0 0.00 0.00 0.00 97 1011.4
20260903161531 71 225 0.0 0.0 0.00 0.00 0.00 98 1011.5
20260903160051 71 225 0.0 0.0 0.00 0.00 0.00 98 1011.7
20260903154523 71 225 0.0 0.0 0.00 0.00 0.00 98 1011.9
20260903153022 70 225 0.0 0.0 0.00 0.00 0.00 98 1012.2
20260903151523 70 225 0.0 0.0 0.00 0.00 0.00 98 1012.3
20260903150025 70 224 0.0 0.0 0.00 0.00 0.00 98 1012.4
20260903144514 69 224 0.0 0.0 0.00 0.00 0.00 98 1012.7
20260903143021 69 223 0.0 0.0 0.00 0.00 0.00 98 1012.8
20260903141514 68 224 0.0 0.0 0.00 0.00 0.00 98 1012.9
20260903140117 68 223 0.0 0.0 0.00 0.00 0.00 98 1013.2
20260903134531 68 222 0.0 0.0 0.00 0.00 0.00 98 1013.2
20260903133115 67 222 0.0 0.0 0.00 0.00 0.00 98 1013.3
20260903131525 66 222 0.0 0.0 0.00 0.00 0.00 98 1013.1
20260903130001 66 222 0.0 0.0 0.00 0.00 0.00 97 1013.3
20260903124554 65 222 0.0 0.0 0.00 0.00 0.00 97 1013.3
20260903123006 65 222 0.0 0.0 0.00 0.00 0.00 97 1013.5
20260903121549 65 222 0.0 0.0 0.00 0.00 0.00 97 1013.7
20260903120005 65 222 0.0 0.0 0.00 0.00 0.00 97 1013.9
20260903114553 64 222 0.0 0.0 0.00 0.00 0.00 97 1014.0
20260903113007 64 225 0.0 0.0 0.00 0.00 0.00 97 1014.1
20260903111602 64 225 0.0 0.0 0.00 0.00 0.00 97 1014.2
20260903110014 64 274 0.0 0.0 0.00 0.00 0.00 97 1014.1
20260903104612 63 274 0.0 0.0 0.00 0.00 0.00 96 1013.8
20260903103015 63 274 0.0 0.0 0.00 0.00 0.00 96 1013.7
20260903101605 62 274 0.0 0.0 0.00 0.00 0.00 96 1013.7
20260903100009 62 277 0.0 0.0 0.00 0.00 0.00 95 1013.6
20260903094610 62 277 0.0 0.0 0.00 0.00 0.00 95 1013.9
20260903093019 62 277 0.0 0.0 0.00 0.00 0.00 95 1014.0
20260903091602 62 277 0.0 0.0 0.00 0.00 0.00 94 1014.1
20260903090024 62 277 0.0 0.0 0.00 0.00 0.00 94 1014.0
20260903084630 62 277 0.0 0.0 0.00 0.00 0.00 93 1014.3
20260903083032 62 277 0.0 0.0 0.00 0.00 0.00 93 1014.9
20260903081617 62 277 0.0 0.0 0.00 0.00 0.00 93 1015.0
20260903080031 62 277 0.0 0.0 0.00 0.00 0.00 92 1014.8
20260903074633 62 277 0.0 0.0 0.00 0.00 0.00 92 1015.0
20260903073027 62 277 0.0 0.0 0.00 0.00 0.00 92 1015.2
20260903071610 62 277 0.0 0.0 0.00 0.00 0.00 91 1015.5
20260903070011 62 277 0.0 0.0 0.00 0.00 0.00 91 1015.7
20260903064554 62 277 0.0 0.0 0.00 0.00 0.00 92 1016.1
20260903063011 62 277 0.0 0.0 0.00 0.00 0.00 92 1016.2
20260903061605 62 277 0.0 0.0 0.00 0.00 0.00 92 1016.6
20260903060012 62 277 0.0 0.0 0.00 0.00 0.00 92 1016.8
20260903054613 62 277 0.0 0.0 0.00 0.00 0.00 91 1017.1
20260903053016 62 277 0.0 0.0 0.00 0.00 0.00 91 1017.2
20260903051602 61 277 0.0 0.0 0.00 0.00 0.00 91 1017.4
20260903050021 61 277 0.0 0.0 0.00 0.00 0.00 91 1017.6
20260903044610 61 277 0.0 0.0 0.00 0.00 0.00 92 1017.8
20260903043022 61 277 0.0 0.0 0.00 0.00 0.00 91 1017.6
20260903041604 61 277 0.0 0.0 0.00 0.00 0.00 92 1017.5
20260903040059 61 277 0.0 0.0 0.00 0.00 0.00 91 1017.3
20260903034601 61 277 0.0 0.0 0.00 0.00 0.00 91 1017.6
20260903033100 61 277 0.0 0.0 0.00 0.00 0.00 91 1018.0
20260903031629 61 277 0.0 0.0 0.00 0.00 0.00 91 1018.2
20260903030056 61 277 0.0 0.0 0.00 0.00 0.00 91 1018.0
20260903024556 61 277 0.0 0.0 0.00 0.00 0.00 90 1018.5
20260903023051 62 277 0.0 0.0 0.00 0.00 0.00 88 1018.6
20260903021551 62 277 0.0 0.0 0.00 0.00 0.00 88 1018.5
20260903020053 62 277 0.0 0.0 0.00 0.00 0.00 87 1018.4
20260903014556 63 277 0.0 0.0 0.00 0.00 0.00 86 1018.2
20260903013051 63 277 0.0 0.0 0.00 0.00 0.00 85 1018.4
20260903011556 63 277 0.0 0.0 0.00 0.00 0.00 85 1018.5
20260903010051 64 277 0.0 0.0 0.00 0.00 0.00 84 1018.6
20260903004550 64 277 0.0 0.0 0.00 0.00 0.00 83 1018.7
20260903003052 65 277 0.0 0.0 0.00 0.00 0.00 82 1018.8
20260903001548 65 277 0.0 0.0 0.00 0.00 0.00 81 1018.9
20260903000047 66 277 0.0 0.0 0.00 0.00 0.00 80 1019.1
20260902234557 66 277 0.0 0.0 0.00 0.00 0.00 77 1019.5
20260902233047 67 277 0.0 0.0 0.00 0.00 0.00 75 1019.3
20260902231546 68 277 0.0 0.0 0.00 0.00 0.00 75 1019.3
20260902230049 69 277 0.0 0.0 0.00 0.00 0.00 74 1019.6
20260902224546 69 277 0.0 0.0 0.00 0.00 0.00 72 1019.5
20260902223047 70 277 0.0 0.0 0.00 0.00 0.00 72 1019.5
20260902221544 71 277 0.0 0.0 0.00 0.00 0.00 70 1019.4
20260902220045 71 277 0.0 0.0 0.00 0.00 0.00 69 1019.3
20260902214543 72 277 0.0 0.0 0.00 0.00 0.00 69 1018.8
20260902213045 72 277 0.0 0.0 0.00 0.00 0.00 69 1018.8
20260902211548 73 292 0.0 0.0 0.00 0.00 0.00 66 1018.8
20260902210047 74 244 0.0 0.0 0.00 0.00 0.00 68 1019.1
20260902204542 75 244 0.0 0.0 0.00 0.00 0.00 63 1019.3
20260902203055 76 244 0.0 0.0 0.00 0.00 0.00 60 1019.3
20260902201544 76 242 0.0 0.0 0.00 0.00 0.00 57 1019.3
20260902200052 77 242 0.0 0.0 0.00 0.00 0.00 57 1019.2
20260902194538 77 240 0.0 0.0 0.00 0.00 0.00 57 1019.5
20260902193038 76 286 0.0 0.0 0.00 0.00 0.00 61 1019.5
20260902191548 76 317 0.0 0.0 0.00 0.00 0.00 59 1019.7
20260902190036 77 315 0.0 0.0 0.00 0.00 0.00 62 1019.8
20260902184546 76 292 0.0 0.0 0.00 0.00 0.00 64 1019.8
20260902183034 77 333 0.0 0.0 0.00 0.00 0.00 65 1019.6
20260902181535 76 314 0.0 0.0 0.00 0.00 0.00 62 1019.6
20260902180033 75 215 0.0 0.0 0.00 0.00 0.00 66 1019.5
20260902174527 74 312 0.0 0.0 0.00 0.00 0.00 70 1019.7
20260902173024 73 319 0.0 0.0 0.00 0.00 0.00 69 1019.9
20260902171522 73 329 0.0 0.0 0.00 0.00 0.00 71 1020.0
20260902170021 73 24 0.0 0.0 0.00 0.00 0.00 71 1020.1
20260902164519 72 320 0.0 0.0 0.00 0.00 0.00 71 1020.1